Glasgow, United Kingdom

8:14 AM BST on August 23, 2017 (GMT +0100)
Glasgow

Weather History for EGPF - April, 2014

Change the Weather History Date:

Tuesday, April 15, 2014

  Actual Average Record
Temperature  
Mean Temperature 44 °F -  
Max Temperature 59 °F 54 °F 71 °F (2003)
Min Temperature 30 °F 40 °F 26 °F (2012)
Degree Days  
Heating Degree Days 20    
Moisture  
Dew Point 38 °F    
Average Humidity 77    
Maximum Humidity 100    
Minimum Humidity 51    
Precipitation  
Precipitation 0.00 in - - ()
Sea Level Pressure  
Sea Level Pressure 30.36 in    
Wind  
Wind Speed 4 mph ()    
Max Wind Speed 15 mph    
Max Gust Speed -    
Visibility 5.7 miles    
Events Fog    
Averages and records for this station are not official NWS values.
T = Trace of Precipitation, MM = Missing Value Source: Averaged Metar Reports

Daily Weather History Graph

Daily Weather History Graph

Search for Another Location

Airport or City:

Trip Planner

Search our weather history database for the weather conditions in past years. The results will help you decide how hot, cold, wet, or windy it might be!

Date:

Astronomy

Apr. 15, 2014 Rise Set
Actual Time 6:12 AM BST 8:23 PM BST
Civil Twilight 5:32 AM BST 9:04 PM BST
Nautical Twilight 4:42 AM BST 9:55 PM BST
Astronomical Twilight 3:41 AM BST 10:57 PM BST
Moon 8:55 PM BST (4/15) 6:12 AM BST (4/15)
Length of Visible Light 15h 31m
Length of Day
14h 11m
Full, 100% of the Moon is Illuminated
Apr 15
Full
Apr 22
Last Quarter
Apr 29
New
May 7
First Quarter
May 14
Full

Hourly Weather History & Observations

Time (BST) Temp. Windchill Dew Point Humidity Pressure Visibility Wind Dir Wind Speed Gust Speed Precip Events Conditions
12:20 AM 37.4 °F - 35.6 °F 93% 30.36 in - Calm Calm - N/A   Clear
12:50 AM 35.6 °F 32.8 °F 33.8 °F 93% 30.39 in - West 3.5 mph - N/A   Clear
1:20 AM 35.6 °F - 33.8 °F 93% 30.39 in 4.3 mi West 2.3 mph - N/A   Unknown
1:50 AM 35.6 °F - 35.6 °F 100% 30.39 in - Calm Calm - N/A   Clear
2:20 AM 33.8 °F - 33.8 °F 100% 30.39 in - West 2.3 mph - N/A   Clear
2:50 AM 33.8 °F - 33.8 °F 100% 30.39 in - Calm Calm - N/A   Clear
3:20 AM 33.8 °F - 33.8 °F 100% 30.39 in 0.3 mi Calm Calm - N/A Fog Fog
3:50 AM 32.0 °F 28.7 °F 32.0 °F 100% 30.39 in - West 3.5 mph - N/A   Clear
4:20 AM 32.0 °F - 32.0 °F 100% 30.39 in 3.7 mi Variable 2.3 mph - N/A   Unknown
4:50 AM 32.0 °F - 32.0 °F 100% 30.39 in 3.7 mi SW 2.3 mph - N/A Fog Fog
5:20 AM 32.0 °F - 32.0 °F 100% 30.39 in - Variable 2.3 mph - N/A   Clear
5:50 AM 30.2 °F 26.7 °F 30.2 °F 100% 30.39 in - WSW 3.5 mph - N/A   Mist
6:20 AM 30.2 °F - 30.2 °F 100% 30.39 in 6.2 mi West 2.3 mph - N/A Fog Shallow Fog
6:50 AM 32.0 °F - 30.2 °F 93% 30.39 in 6.2 mi Variable 2.3 mph - N/A Fog Shallow Fog
7:20 AM 32.0 °F 28.7 °F 32.0 °F 100% 30.39 in - WSW 3.5 mph - N/A   Clear
7:50 AM 35.6 °F - 33.8 °F 93% 30.39 in - West 2.3 mph - N/A   Clear
8:20 AM 37.4 °F - 37.4 °F 100% 30.42 in - WSW 2.3 mph - N/A   Clear
8:50 AM 41.0 °F - 39.2 °F 93% 30.42 in - Calm Calm - N/A   Clear
9:20 AM 42.8 °F - 39.2 °F 87% 30.42 in - Calm Calm - N/A   Clear
9:50 AM 46.4 °F 45.2 °F 39.2 °F 76% 30.42 in - Variable 3.5 mph - N/A   Clear
10:20 AM 48.2 °F - 39.2 °F 71% 30.39 in - Variable 2.3 mph - N/A   Clear
10:50 AM 51.8 °F - 41.0 °F 67% 30.39 in 6.2 mi Calm Calm - N/A   Scattered Clouds
11:20 AM 51.8 °F - 42.8 °F 71% 30.39 in 6.2 mi WSW 5.8 mph - N/A   Scattered Clouds
11:50 AM 53.6 °F - 42.8 °F 67% 30.39 in 6.2 mi WSW 6.9 mph - N/A   Scattered Clouds
12:20 PM 53.6 °F - 42.8 °F 67% 30.39 in 6.2 mi WSW 9.2 mph - N/A   Scattered Clouds
12:50 PM 55.4 °F - 42.8 °F 63% 30.36 in 6.2 mi West 8.1 mph - N/A   Scattered Clouds
1:20 PM 57.2 °F - 42.8 °F 59% 30.36 in 6.2 mi SW 11.5 mph - N/A   Scattered Clouds
1:50 PM 57.2 °F - 42.8 °F 59% 30.36 in 6.2 mi SSW 11.5 mph - N/A   Scattered Clouds
2:20 PM 57.2 °F - 42.8 °F 59% 30.36 in 6.2 mi SW 10.4 mph - N/A   Partly Cloudy
2:50 PM 59.0 °F - 41.0 °F 51% 30.33 in 6.2 mi SSW 15.0 mph - N/A   Partly Cloudy
3:20 PM 59.0 °F - 42.8 °F 55% 30.33 in 6.2 mi SSW 12.7 mph - N/A   Partly Cloudy
3:50 PM 59.0 °F - 42.8 °F 55% 30.33 in 6.2 mi SSW 12.7 mph - N/A   Scattered Clouds
4:20 PM 59.0 °F - 41.0 °F 51% 30.33 in 6.2 mi SW 13.8 mph - N/A   Partly Cloudy
4:50 PM 59.0 °F - 42.8 °F 55% 30.30 in 6.2 mi SSW 13.8 mph - N/A   Partly Cloudy
5:20 PM 59.0 °F - 41.0 °F 51% 30.30 in 6.2 mi SW 15.0 mph - N/A   Partly Cloudy
5:50 PM 57.2 °F - 41.0 °F 55% 30.30 in 6.2 mi SW 13.8 mph - N/A   Partly Cloudy
6:50 PM 57.2 °F - 39.2 °F 51% 30.30 in - SW 12.7 mph - N/A   Clear
7:20 PM 55.4 °F - 39.2 °F 54% 30.27 in - SSW 9.2 mph - N/A   Clear
7:50 PM 53.6 °F - 39.2 °F 58% 30.27 in - SSW 10.4 mph - N/A   Clear
8:20 PM 51.8 °F - 39.2 °F 62% 30.27 in 6.2 mi SSW 9.2 mph - N/A   Partly Cloudy
8:50 PM 50.0 °F - 41.0 °F 71% 30.30 in 6.2 mi WSW 5.8 mph - N/A   Partly Cloudy
9:20 PM 48.2 °F - 41.0 °F 76% 30.30 in 6.2 mi Variable 3.5 mph - N/A   Partly Cloudy
9:50 PM 46.4 °F 44.3 °F 41.0 °F 81% 30.30 in 6.2 mi SW 4.6 mph - N/A   Partly Cloudy
10:20 PM 48.2 °F - 39.2 °F 71% 30.30 in - SSW 6.9 mph - N/A   Clear
10:50 PM 48.2 °F - 39.2 °F 71% 30.30 in - SSW 10.4 mph - N/A   Clear
11:20 PM 46.4 °F 43.5 °F 39.2 °F 76% 30.30 in - SSW 5.8 mph - N/A   Clear
11:50 PM 46.4 °F 41.9 °F 39.2 °F 76% 30.30 in 6.2 mi South 9.2 mph - N/A   Scattered Clouds